FW3929 Weather Reports


Display with metric or nautical units.
time (UTC)temp
F
wind
direction
speed
MPH
gust
MPH
rain 1hr
in
rain 24hr
in
rain mn
in
humidity
%
barometer
mb
20260508163018 54 87 3.0 11.0 0.00 1.23 0.00 74 1002.1
20260508161514 52 85 2.0 9.0 0.00 1.23 0.00 77 1002.1
20260508160028 52 105 2.0 7.0 0.00 1.23 0.00 79 1002.3
20260508154513 51 76 2.0 8.0 0.00 1.23 0.00 80 1002.2
20260508153011 52 103 2.0 9.0 0.00 1.23 0.00 80 1002.3
20260508151511 52 121 2.0 10.0 0.00 1.23 0.00 81 1002.2
20260508150015 52 89 5.0 10.0 0.00 1.23 0.00 80 1002.2
20260508144509 53 95 3.0 10.0 0.00 1.23 0.00 82 1002.3
20260508143007 53 58 3.0 10.0 0.00 1.23 0.00 83 1002.4
20260508141505 53 136 2.0 8.0 0.00 1.23 0.00 84 1002.5
20260508140100 51 95 4.0 7.0 0.00 1.23 0.00 87 1002.7
20260508134556 49 99 2.0 6.0 0.00 1.23 0.00 93 1003.0
20260508133058 48 105 1.0 6.0 0.00 1.23 0.00 97 1003.0
20260508131551 49 141 1.0 4.0 0.00 1.23 0.00 99 1003.1
20260508130054 47 104 1.0 6.0 0.00 1.23 0.00 100 1002.8
20260508124548 46 112 2.0 6.0 0.00 1.24 0.00 100 1002.7
20260508123047 45 104 1.0 6.0 0.00 1.24 0.00 100 1002.8
20260508121646 45 95 2.0 6.0 0.00 1.24 0.00 100 1002.5
20260508120045 44 106 0.0 0.0 0.00 1.24 0.00 100 1003.1
20260508114545 44 100 0.0 0.0 0.00 1.26 0.00 100 1003.2
20260508113046 44 82 0.0 0.0 0.00 1.26 0.00 100 1003.2
20260508111544 44 67 0.0 0.0 0.00 1.26 0.00 100 1002.8
20260508110051 43 97 0.0 1.0 0.00 1.26 0.00 100 1003.1
20260508104543 42 97 0.0 0.0 0.00 1.32 0.00 100 1003.2
20260508103043 42 99 0.0 0.0 0.00 1.32 0.00 100 1003.4
20260508101541 41 99 0.0 0.0 0.00 1.32 0.00 100 1003.2
20260508100040 41 99 0.0 0.0 0.00 1.32 0.00 100 1003.4
20260508094542 41 101 0.0 4.0 0.00 1.32 0.00 100 1003.0
20260508093038 41 89 0.0 5.0 0.00 1.32 0.00 100 1003.0
20260508091538 41 83 1.0 5.0 0.00 1.32 0.00 99 1002.8
20260508090035 41 66 2.0 6.0 0.00 1.32 0.00 99 1002.7
20260508084533 42 72 2.0 5.0 0.00 1.34 0.00 100 1002.7
20260508083112 42 41 1.0 5.0 0.00 1.34 0.00 100 1002.5
20260508081527 43 91 2.0 6.0 0.00 1.34 0.00 99 1002.3
20260508080024 44 76 1.0 5.0 0.00 1.34 0.00 100 1002.4
20260508074530 44 61 2.0 8.0 0.00 1.37 0.00 100 1002.2
20260508073023 45 54 1.0 5.0 0.00 1.37 0.00 100 1002.3
20260508071524 45 15 0.0 0.0 0.00 1.37 0.00 100 1002.2
20260508070018 45 17 0.0 3.0 0.00 1.37 0.00 100 1002.2
20260508064536 45 291 0.0 0.0 0.00 1.37 0.00 100 1002.0
20260508063013 45 291 0.0 0.0 0.00 1.37 0.00 100 1002.1
20260508061512 46 291 0.0 0.0 0.00 1.37 0.00 100 1002.0
20260508060012 46 291 0.0 0.0 0.00 1.37 0.00 100 1002.2
20260508054511 46 280 1.0 3.0 0.00 1.37 0.00 100 1002.2
20260508053009 46 278 1.0 3.0 0.00 1.37 0.00 100 1002.1
20260508051507 46 276 1.0 3.0 0.00 1.37 0.00 100 1001.8
20260508050006 47 274 0.0 0.0 0.00 1.37 0.00 100 1001.8
20260508044503 47 274 0.0 0.0 0.00 1.37 0.00 100 1001.8
20260508043001 47 274 0.0 0.0 0.00 1.37 0.00 100 1001.9
20260508041605 47 274 0.0 0.0 0.00 1.37 0.00 100 1002.2
20260508040111 47 274 0.0 0.0 0.00 1.37 0.00 100 1002.2
20260508034558 47 274 0.0 0.0 0.00 1.37 0.00 100 1002.4
20260508033101 47 274 0.0 0.0 0.00 1.37 0.00 100 1002.3
20260508031553 47 274 0.0 0.0 0.00 1.37 0.00 100 1002.5
20260508030107 47 274 0.0 4.0 0.00 1.37 0.00 100 1002.7
20260508024600 47 307 0.0 3.0 0.00 1.37 1.37 100 1002.7
20260508023048 47 309 0.0 3.0 0.00 1.37 1.37 99 1002.7
20260508021546 48 289 0.0 2.0 0.00 1.37 1.37 99 1002.4
20260508020047 48 289 0.0 2.0 0.00 1.37 1.37 100 1002.4
20260508014546 48 282 0.0 0.0 0.00 1.37 1.37 100 1002.4
20260508013043 48 289 1.0 5.0 0.00 1.37 1.37 100 1002.5
20260508011556 48 226 0.0 3.0 0.00 1.37 1.37 100 1002.1
20260508010055 48 248 2.0 6.0 0.00 1.37 1.37 100 1002.5
20260508004554 48 282 0.0 4.0 0.00 1.37 1.37 99 1002.7
20260508003042 48 284 0.0 4.0 0.00 1.37 1.37 100 1002.7
20260508001542 48 304 1.0 4.0 0.00 1.37 1.37 99 1002.8
20260508000038 49 316 0.0 0.0 0.00 1.37 1.37 100 1002.6
20260507234537 49 316 1.0 4.0 0.00 1.37 1.37 99 1002.9
20260507233036 50 262 0.0 4.0 0.00 1.37 1.37 100 1003.0
20260507231539 50 274 0.0 3.0 0.00 1.37 1.37 99 1002.5
20260507230037 50 284 0.0 6.0 0.00 1.37 1.37 100 1003.0
20260507224539 50 220 3.0 9.0 0.00 1.37 1.37 100 1002.9
20260507223033 50 201 1.0 9.0 0.01 1.37 1.37 100 1002.9
20260507221536 50 239 3.0 8.0 0.01 1.37 1.37 100 1003.2
20260507220032 50 268 2.0 11.0 0.02 1.37 1.37 99 1003.2
20260507214531 50 309 2.0 6.0 0.03 1.37 1.37 99 1003.4
20260507213032 50 207 2.0 7.0 0.04 1.36 1.36 99 1003.4
20260507211529 50 158 2.0 9.0 0.09 1.36 1.36 99 1002.9
20260507210029 49 145 4.0 10.0 0.15 1.35 1.35 99 1002.3
20260507204526 49 181 0.0 4.0 0.26 1.34 1.34 99 1002.9
20260507203022 49 162 1.0 5.0 0.39 1.32 1.32 99 1003.5
20260507201522 49 153 2.0 7.0 0.51 1.27 1.27 99 1004.0
20260507200031 49 190 2.0 8.0 0.60 1.20 1.20 99 1004.3
20260507194518 49 219 2.0 10.0 0.59 1.07 1.07 99 1004.8
20260507193019 49 230 3.0 13.0 0.55 0.92 0.92 99 1005.3
20260507191515 49 234 5.0 21.0 0.55 0.75 0.75 99 1005.9
20260507190031 50 220 3.0 12.0 0.43 0.59 0.59 98 1005.7
20260507184513 51 255 3.0 15.0 0.33 0.47 0.47 98 1005.8
20260507183018 52 196 5.0 15.0 0.23 0.37 0.37 99 1006.2
20260507181510 52 176 4.0 16.0 0.05 0.19 0.19 98 1005.7
20260507180012 52 141 7.0 16.0 0.02 0.16 0.16 98 1004.9
20260507174511 53 183 7.0 15.0 0.00 0.14 0.14 99 1004.9
20260507173007 53 151 5.0 18.0 0.00 0.14 0.14 99 1005.5
20260507171505 52 122 6.0 15.0 0.00 0.14 0.14 98 1005.8
20260507170004 52 178 4.0 14.0 0.00 0.14 0.14 99 1006.4
20260507164600 52 185 4.0 21.0 0.00 0.14 0.14 98 1006.8